Regional Weather Roundup
Issued by NWS Charleston, WV

Home | Current Version | Previous Version | Text Only | Print | Product List | Glossary Off
Versions: 1 2 3 4 5 6 7 8 9 10 11 12 13 14 15 16 17 18 19 20 21 22 23 24 25 26 27 28 29 30 31 32 33 34 35 36 37 38 39 40 41 42 43 44 45 46 47 48 49 50

000
ASUS41 KRLX 271310
RWRRLX
West Virginia Regional Weather Roundup
National Weather Service Charleston WV
900 AM EDT FRI MAR 27 2015

Note: "fair" indicates few or no clouds below 12,000 feet with no
significant weather and/or obstructions to visibility.

WVZ003-271400-
Northern Panhandle of West Virginia

CITY           SKY/WX    TMP DP  RH WIND       PRES   REMARKS
WHEELING       CLOUDY    33  27  78 NW9       29.87R
$$

WVZ009-271400-
Northwest West Virginia

CITY           SKY/WX    TMP DP  RH WIND       PRES   REMARKS
PARKERSBURG    PTSUNNY   33  26  75 NW6       29.94R
$$

WVZ006-271400-
Western West Virginia

CITY           SKY/WX    TMP DP  RH WIND       PRES   REMARKS
HUNTINGTON     PTSUNNY   34  24  67 N12       29.94R
$$

WVZ015-271400-
West Central West Virginia

CITY           SKY/WX    TMP DP  RH WIND       PRES   REMARKS
CHARLESTON     CLOUDY    35  24  64 NW12G17   29.91R
$$

WVZ022-031-271400-
North Central West Virginia

CITY           SKY/WX    TMP DP  RH WIND       PRES   REMARKS
CLARKSBURG     CLOUDY    37  31  78 NW8       29.84F
MORGANTOWN     CLOUDY    37  28  70 NW5       29.85S
$$

WVZ025-035-042-045-271400-
Southern West Virginia

CITY           SKY/WX    TMP DP  RH WIND       PRES   REMARKS
BECKLEY        CLOUDY    33  30  88 N13       29.82R
LOGAN          CLOUDY    34  27  75 N9        29.85R
BLUEFIELD      LGT RAIN  35  31  85 N5        29.80R VSB 1/2
LEWISBURG      CLOUDY    37  33  85 NW7       29.80R
$$

WVZ047-271400-
Northern Mountains of West Virginia

CITY           SKY/WX    TMP DP  RH WIND       PRES   REMARKS
ELKINS         CLOUDY    35  30  82 CALM      29.82F
$$

WVZ052-271400-
Eastern Panhandle of West Virginia

CITY           SKY/WX    TMP DP  RH WIND       PRES   REMARKS
MARTINSBURG    CLOUDY    42  31  64 N9        29.82S
PETERSBURG     CLOUDY    40  27  60 NW6       29.84R
$$


USA.gov is the U.S. government's official web portal to all federal, state and local government web resources and services.